| time (UTC) | temp F | wind direction | speed knots | gust knots | rain 1hr in | rain 24hr in | rain mn in | humidity % | barometer mb |
| 20260509064816 | 48 | 141 | 0.0 | 0.0 | 0.00 | 0.01 | 0.00 | 89 | 1011.0 |
| 20260509064323 | 48 | 141 | 0.0 | 0.0 | 0.00 | 0.01 | 0.00 | 89 | 1011.0 |
| 20260509063827 | 48 | 141 | 0.0 | 0.0 | 0.00 | 0.01 | 0.00 | 89 | 1011.0 |
| 20260509063332 | 48 | 141 | 0.0 | 0.0 | 0.00 | 0.01 | 0.00 | 89 | 1011.1 |
| 20260509062835 | 48 | 141 | 0.0 | 0.0 | 0.00 | 0.01 | 0.00 | 89 | 1011.3 |
| 20260509062319 | 48 | 141 | 0.0 | 0.0 | 0.00 | 0.01 | 0.00 | 88 | 1011.4 |
| 20260509061845 | 48 | 141 | 0.0 | 0.0 | 0.00 | 0.01 | 0.00 | 88 | 1011.5 |
| 20260509061328 | 48 | 141 | 0.0 | 0.0 | 0.00 | 0.01 | 0.00 | 88 | 1011.6 |
| 20260509060852 | 48 | 141 | 0.0 | 0.0 | 0.00 | 0.01 | 0.00 | 88 | 1011.6 |
| 20260509060312 | 48 | 141 | 0.0 | 0.0 | 0.00 | 0.01 | 0.00 | 88 | 1011.5 |
| 20260509055824 | 48 | 141 | 0.0 | 0.0 | 0.00 | 0.01 | 0.00 | 88 | 1011.5 |
| 20260509055330 | 48 | 141 | 0.0 | 0.0 | 0.00 | 0.01 | 0.00 | 87 | 1011.6 |
| 20260509054814 | 48 | 141 | 0.0 | 0.0 | 0.00 | 0.01 | 0.00 | 87 | 1011.6 |
| 20260509054322 | 48 | 141 | 0.0 | 0.0 | 0.00 | 0.01 | 0.00 | 87 | 1011.6 |
| 20260509053827 | 48 | 141 | 0.0 | 0.0 | 0.00 | 0.01 | 0.00 | 87 | 1011.6 |
| 20260509053313 | 48 | 141 | 0.0 | 0.0 | 0.00 | 0.01 | 0.00 | 87 | 1011.7 |
| 20260509052821 | 48 | 141 | 0.0 | 0.0 | 0.00 | 0.01 | 0.00 | 87 | 1011.7 |
| 20260509052326 | 48 | 141 | 0.0 | 0.0 | 0.00 | 0.01 | 0.00 | 87 | 1012.0 |
| 20260509051830 | 48 | 167 | 0.0 | 0.0 | 0.00 | 0.01 | 0.00 | 87 | 1012.1 |
| 20260509051316 | 48 | 167 | 0.0 | 0.0 | 0.00 | 0.01 | 0.00 | 86 | 1012.3 |
| 20260509050842 | 48 | 167 | 0.0 | 0.0 | 0.00 | 0.01 | 0.00 | 86 | 1012.3 |
| 20260509050326 | 48 | 150 | 0.0 | 0.0 | 0.00 | 0.01 | 0.00 | 86 | 1012.4 |
| 20260509045814 | 48 | 150 | 0.0 | 0.0 | 0.00 | 0.01 | 0.00 | 86 | 1012.3 |
| 20260509045321 | 49 | 150 | 0.0 | 0.0 | 0.00 | 0.01 | 0.00 | 85 | 1012.5 |
| 20260509044845 | 49 | 163 | 0.0 | 0.0 | 0.00 | 0.01 | 0.00 | 85 | 1012.4 |
| 20260509044328 | 49 | 163 | 0.0 | 0.0 | 0.00 | 0.01 | 0.00 | 85 | 1012.4 |
| 20260509043814 | 49 | 151 | 0.0 | 0.0 | 0.00 | 0.01 | 0.00 | 85 | 1012.2 |
| 20260509043322 | 49 | 136 | 0.0 | 0.0 | 0.00 | 0.01 | 0.00 | 84 | 1012.2 |
| 20260509042826 | 49 | 136 | 0.0 | 0.0 | 0.00 | 0.01 | 0.00 | 84 | 1012.3 |
| 20260509042349 | 49 | 136 | 0.0 | 0.0 | 0.00 | 0.01 | 0.00 | 84 | 1012.2 |
| 20260509041834 | 49 | 146 | 0.0 | 0.0 | 0.00 | 0.01 | 0.00 | 83 | 1012.2 |
| 20260509041318 | 50 | 146 | 0.0 | 0.0 | 0.00 | 0.01 | 0.00 | 83 | 1012.3 |
| 20260509040823 | 50 | 146 | 0.0 | 0.0 | 0.00 | 0.01 | 0.00 | 83 | 1012.3 |
| 20260509040350 | 50 | 146 | 0.0 | 0.0 | 0.00 | 0.01 | 0.00 | 82 | 1012.3 |
| 20260509035835 | 49 | 146 | 0.0 | 0.0 | 0.00 | 0.01 | 0.01 | 82 | 1012.3 |
| 20260509035320 | 49 | 146 | 0.0 | 0.0 | 0.00 | 0.01 | 0.01 | 81 | 1012.5 |
| 20260509034846 | 49 | 146 | 0.0 | 0.0 | 0.00 | 0.01 | 0.01 | 81 | 1012.6 |
| 20260509034315 | 49 | 146 | 0.0 | 0.0 | 0.00 | 0.01 | 0.01 | 81 | 1012.6 |
| 20260509033840 | 50 | 146 | 0.0 | 0.0 | 0.00 | 0.01 | 0.01 | 81 | 1012.4 |
| 20260509033326 | 50 | 146 | 0.0 | 0.0 | 0.00 | 0.01 | 0.01 | 81 | 1012.3 |
| 20260509032829 | 50 | 146 | 0.0 | 0.0 | 0.00 | 0.01 | 0.01 | 81 | 1012.3 |
| 20260509032335 | 50 | 146 | 0.0 | 0.0 | 0.00 | 0.01 | 0.01 | 80 | 1012.1 |
| 20260509031820 | 50 | 146 | 0.0 | 0.0 | 0.00 | 0.01 | 0.01 | 80 | 1012.2 |
| 20260509031328 | 50 | 146 | 0.0 | 0.0 | 0.00 | 0.01 | 0.01 | 80 | 1012.1 |
| 20260509030832 | 50 | 146 | 0.0 | 0.0 | 0.00 | 0.01 | 0.01 | 80 | 1012.2 |
| 20260509030318 | 50 | 146 | 0.0 | 0.0 | 0.00 | 0.01 | 0.01 | 80 | 1012.1 |
| 20260509025823 | 50 | 146 | 0.0 | 0.0 | 0.00 | 0.01 | 0.01 | 80 | 1012.3 |
| 20260509025331 | 50 | 146 | 0.0 | 0.0 | 0.00 | 0.01 | 0.01 | 79 | 1012.3 |
| 20260509024816 | 50 | 146 | 0.0 | 0.0 | 0.00 | 0.01 | 0.01 | 79 | 1012.5 |
| 20260509024325 | 50 | 146 | 0.0 | 0.0 | 0.00 | 0.01 | 0.01 | 78 | 1012.4 |
| 20260509023831 | 50 | 129 | 0.0 | 0.0 | 0.00 | 0.01 | 0.01 | 77 | 1012.4 |
| 20260509023315 | 51 | 129 | 0.0 | 0.0 | 0.00 | 0.01 | 0.01 | 76 | 1012.5 |
| 20260509022820 | 51 | 203 | 0.0 | 0.0 | 0.00 | 0.01 | 0.01 | 75 | 1012.5 |
| 20260509022325 | 51 | 222 | 0.0 | 0.0 | 0.00 | 0.01 | 0.01 | 75 | 1012.6 |
| 20260509021829 | 51 | 222 | 0.0 | 0.0 | 0.00 | 0.01 | 0.01 | 74 | 1012.5 |
| 20260509021317 | 51 | 222 | 0.0 | 0.0 | 0.00 | 0.01 | 0.01 | 74 | 1012.5 |
| 20260509020822 | 52 | 222 | 0.0 | 0.0 | 0.00 | 0.01 | 0.01 | 74 | 1012.2 |
| 20260509020329 | 52 | 239 | 0.0 | 0.0 | 0.00 | 0.01 | 0.01 | 74 | 1012.3 |
| 20260509015828 | 52 | 239 | 0.0 | 0.0 | 0.00 | 0.01 | 0.01 | 73 | 1012.2 |
| 20260509015316 | 52 | 238 | 0.0 | 2.6 | 0.00 | 0.01 | 0.01 | 73 | 1011.8 |
| 20260509014822 | 52 | 198 | 0.0 | 4.3 | 0.00 | 0.01 | 0.01 | 73 | 1011.9 |
| 20260509014325 | 53 | 250 | 0.0 | 0.0 | 0.00 | 0.01 | 0.01 | 73 | 1012.3 |
| 20260509013829 | 53 | 210 | 0.0 | 0.0 | 0.00 | 0.01 | 0.01 | 72 | 1012.3 |
| 20260509013315 | 53 | 203 | 0.0 | 0.0 | 0.00 | 0.01 | 0.01 | 71 | 1012.3 |
| 20260509012821 | 53 | 283 | 0.0 | 1.7 | 0.00 | 0.01 | 0.01 | 70 | 1012.4 |
| 20260509012325 | 53 | 231 | 0.0 | 1.7 | 0.00 | 0.01 | 0.01 | 70 | 1012.3 |
| 20260509011831 | 53 | 211 | 0.0 | 0.0 | 0.00 | 0.01 | 0.01 | 70 | 1012.1 |
| 20260509011314 | 53 | 186 | 0.0 | 0.0 | 0.00 | 0.01 | 0.01 | 69 | 1012.0 |
| 20260509010819 | 53 | 238 | 0.0 | 0.0 | 0.00 | 0.01 | 0.01 | 69 | 1011.7 |
| 20260509010343 | 53 | 238 | 0.0 | 0.0 | 0.00 | 0.01 | 0.01 | 68 | 1011.6 |
| 20260509005826 | 54 | 283 | 0.0 | 0.9 | 0.00 | 0.01 | 0.01 | 68 | 1011.6 |
| 20260509005316 | 54 | 231 | 0.0 | 0.9 | 0.00 | 0.01 | 0.01 | 68 | 1011.6 |
| 20260509004824 | 54 | 226 | 0.0 | 0.0 | 0.00 | 0.01 | 0.01 | 67 | 1011.4 |
| 20260509004329 | 54 | 30 | 0.0 | 0.0 | 0.00 | 0.01 | 0.01 | 67 | 1011.4 |
| 20260509003832 | 54 | 247 | 0.0 | 0.0 | 0.00 | 0.01 | 0.01 | 67 | 1011.6 |
| 20260509003316 | 54 | 240 | 0.0 | 0.0 | 0.00 | 0.01 | 0.01 | 67 | 1011.5 |
| 20260509002820 | 54 | 219 | 0.0 | 0.0 | 0.00 | 0.01 | 0.01 | 67 | 1011.5 |
| 20260509002324 | 54 | 214 | 0.0 | 0.0 | 0.00 | 0.01 | 0.01 | 67 | 1011.6 |
| 20260509001830 | 54 | 213 | 0.0 | 0.0 | 0.00 | 0.01 | 0.01 | 67 | 1011.7 |
| 20260509001335 | 55 | 232 | 0.0 | 0.0 | 0.00 | 0.01 | 0.01 | 66 | 1011.7 |
| 20260509000820 | 55 | 217 | 0.0 | 0.0 | 0.00 | 0.01 | 0.01 | 66 | 1011.6 |
| 20260509000348 | 55 | 152 | 0.0 | 0.0 | 0.00 | 0.01 | 0.01 | 65 | 1011.6 |
| 20260508235831 | 55 | 320 | 0.0 | 5.2 | 0.00 | 0.01 | 0.01 | 65 | 1011.6 |
| 20260508235316 | 55 | 228 | 0.9 | 5.2 | 0.00 | 0.01 | 0.01 | 65 | 1011.5 |
| 20260508234822 | 55 | 231 | 0.0 | 3.5 | 0.00 | 0.01 | 0.01 | 65 | 1011.5 |
| 20260508234329 | 55 | 223 | 0.0 | 5.2 | 0.00 | 0.01 | 0.01 | 65 | 1011.5 |
| 20260508233831 | 55 | 226 | 0.9 | 5.2 | 0.00 | 0.01 | 0.01 | 65 | 1011.4 |
| 20260508233315 | 55 | 289 | 0.0 | 0.0 | 0.00 | 0.01 | 0.01 | 65 | 1011.4 |
| 20260508232822 | 56 | 207 | 0.0 | 1.7 | 0.00 | 0.01 | 0.01 | 64 | 1011.4 |
| 20260508232326 | 56 | 243 | 0.0 | 0.9 | 0.00 | 0.01 | 0.01 | 64 | 1011.4 |
| 20260508231831 | 56 | 246 | 0.0 | 0.9 | 0.00 | 0.01 | 0.01 | 64 | 1011.3 |
| 20260508231335 | 56 | 161 | 0.0 | 7.0 | 0.00 | 0.01 | 0.01 | 64 | 1011.3 |
| 20260508230822 | 57 | 313 | 0.9 | 7.0 | 0.00 | 0.01 | 0.01 | 64 | 1011.2 |
| 20260508230324 | 57 | 206 | 0.0 | 9.6 | 0.00 | 0.01 | 0.01 | 64 | 1011.1 |
| 20260508225829 | 57 | 206 | 1.7 | 9.6 | 0.00 | 0.01 | 0.01 | 64 | 1011.1 |
| 20260508225315 | 58 | 223 | 0.0 | 1.7 | 0.00 | 0.01 | 0.01 | 64 | 1010.9 |
| 20260508224822 | 58 | 303 | 0.0 | 0.9 | 0.00 | 0.01 | 0.01 | 63 | 1010.9 |
| 20260508224326 | 59 | 226 | 0.0 | 5.2 | 0.00 | 0.01 | 0.01 | 63 | 1011.0 |
| 20260508223816 | 59 | 300 | 0.9 | 5.2 | 0.00 | 0.01 | 0.01 | 64 | 1011.1 |
| 20260508223324 | 59 | 306 | 0.0 | 1.7 | 0.00 | 0.01 | 0.01 | 68 | 1011.0 |
| 20260508222830 | 58 | 297 | 0.0 | 0.0 | 0.00 | 0.01 | 0.01 | 72 | 1010.9 |
| 20260508222316 | 57 | 176 | 0.0 | 0.0 | 0.00 | 0.01 | 0.01 | 74 | 1011.0 |
| 20260508221823 | 57 | 269 | 0.0 | 6.1 | 0.00 | 0.01 | 0.01 | 73 | 1011.1 |
| 20260508221329 | 57 | 218 | 0.0 | 0.0 | 0.00 | 0.01 | 0.01 | 75 | 1011.2 |
| 20260508220835 | 56 | 230 | 0.0 | 0.0 | 0.00 | 0.01 | 0.01 | 78 | 1011.2 |
| 20260508220321 | 54 | 229 | 0.0 | 0.0 | 0.00 | 0.01 | 0.01 | 79 | 1011.3 |
| 20260508215844 | 54 | 239 | 0.0 | 0.0 | 0.00 | 0.01 | 0.01 | 79 | 1011.3 |
| 20260508215329 | 53 | 249 | 0.0 | 0.0 | 0.00 | 0.01 | 0.01 | 79 | 1011.3 |
| 20260508214833 | 53 | 335 | 0.0 | 0.0 | 0.00 | 0.01 | 0.01 | 77 | 1011.4 |
| 20260508214321 | 53 | 196 | 0.0 | 0.0 | 0.00 | 0.01 | 0.01 | 77 | 1011.4 |
| 20260508213824 | 53 | 245 | 0.0 | 0.0 | 0.01 | 0.01 | 0.01 | 79 | 1011.3 |
| 20260508213333 | 53 | 214 | 0.0 | 0.0 | 0.01 | 0.01 | 0.01 | 80 | 1011.3 |
| 20260508212816 | 53 | 276 | 0.0 | 0.0 | 0.01 | 0.01 | 0.01 | 81 | 1011.3 |
| 20260508212320 | 52 | 236 | 0.0 | 0.0 | 0.01 | 0.01 | 0.01 | 82 | 1011.2 |
| 20260508211827 | 52 | 220 | 0.0 | 0.0 | 0.01 | 0.01 | 0.01 | 80 | 1011.2 |
| 20260508211332 | 52 | 216 | 0.0 | 0.0 | 0.01 | 0.01 | 0.01 | 80 | 1011.3 |
| 20260508210814 | 52 | 213 | 0.0 | 0.0 | 0.01 | 0.01 | 0.01 | 80 | 1011.3 |
| 20260508210343 | 52 | 213 | 0.0 | 0.9 | 0.01 | 0.01 | 0.01 | 79 | 1011.3 |
| 20260508205846 | 52 | 224 | 0.0 | 7.0 | 0.01 | 0.01 | 0.01 | 77 | 1011.5 |
| 20260508205330 | 53 | 232 | 1.7 | 9.6 | 0.01 | 0.01 | 0.01 | 76 | 1011.5 |
| 20260508204813 | 54 | 231 | 0.0 | 9.6 | 0.01 | 0.01 | 0.01 | 74 | 1011.5 |
| 20260508204319 | 55 | 248 | 0.0 | 10.4 | 0.01 | 0.01 | 0.01 | 70 | 1011.8 |
| 20260508203823 | 56 | 294 | 5.2 | 13.0 | 0.00 | 0.00 | 0.00 | 66 | 1011.7 |
| 20260508203326 | 57 | 210 | 1.7 | 13.0 | 0.00 | 0.00 | 0.00 | 58 | 1011.4 |
| 20260508202852 | 58 | 23 | 0.0 | 12.2 | 0.00 | 0.00 | 0.00 | 58 | 1011.2 |
| 20260508202320 | 58 | 237 | 0.0 | 0.0 | 0.00 | 0.00 | 0.00 | 58 | 1010.9 |
| 20260508201825 | 59 | 153 | 0.0 | 0.0 | 0.00 | 0.00 | 0.00 | 58 | 1010.8 |
| 20260508201327 | 59 | 200 | 0.0 | 0.0 | 0.00 | 0.00 | 0.00 | 56 | 1010.9 |
| 20260508200814 | 59 | 235 | 0.0 | 0.0 | 0.00 | 0.00 | 0.00 | 57 | 1010.8 |
| 20260508200322 | 60 | 250 | 0.0 | 0.0 | 0.00 | 0.00 | 0.00 | 55 | 1011.0 |
| 20260508195825 | 60 | 232 | 0.0 | 0.0 | 0.00 | 0.00 | 0.00 | 56 | 1011.0 |
| 20260508195329 | 59 | 269 | 0.0 | 0.0 | 0.00 | 0.00 | 0.00 | 56 | 1011.1 |
| 20260508194852 | 59 | 232 | 0.0 | 0.0 | 0.00 | 0.00 | 0.00 | 58 | 1011.1 |
| 20260508194351 | 59 | 238 | 0.0 | 0.0 | 0.00 | 0.00 | 0.00 | 57 | 1011.2 |
| 20260508193813 | 59 | 226 | 0.0 | 0.0 | 0.00 | 0.00 | 0.00 | 56 | 1011.2 |
| 20260508193339 | 59 | 226 | 0.0 | 0.0 | 0.00 | 0.00 | 0.00 | 56 | 1011.1 |
| 20260508192825 | 59 | 264 | 0.0 | 0.0 | 0.00 | 0.00 | 0.00 | 56 | 1011.2 |
| 20260508192325 | 59 | 335 | 0.0 | 0.0 | 0.00 | 0.00 | 0.00 | 54 | 1011.3 |
| 20260508191830 | 59 | 276 | 0.0 | 0.0 | 0.00 | 0.00 | 0.00 | 54 | 1011.1 |
| 20260508191314 | 59 | 32 | 0.0 | 0.0 | 0.00 | 0.00 | 0.00 | 52 | 1011.2 |
| 20260508190820 | 59 | 15 | 0.0 | 0.0 | 0.00 | 0.00 | 0.00 | 53 | 1011.2 |
| 20260508190329 | 59 | 289 | 0.0 | 0.0 | 0.00 | 0.00 | 0.00 | 52 | 1011.3 |
| 20260508185815 | 60 | 347 | 0.0 | 3.5 | 0.00 | 0.00 | 0.00 | 52 | 1011.3 |
| 20260508185318 | 60 | 32 | 0.0 | 8.7 | 0.00 | 0.00 | 0.00 | 55 | 1011.3 |
| 20260508184823 | 59 | 265 | 0.0 | 0.9 | 0.00 | 0.00 | 0.00 | 58 | 1011.3 |
| 20260508184350 | 58 | 315 | 0.0 | 0.0 | 0.00 | 0.00 | 0.00 | 60 | 1011.4 |
| 20260508183834 | 58 | 266 | 0.0 | 0.0 | 0.00 | 0.00 | 0.00 | 59 | 1011.7 |
| 20260508183338 | 58 | 307 | 0.0 | 0.0 | 0.00 | 0.00 | 0.00 | 55 | 1011.8 |
| 20260508182845 | 59 | 16 | 0.0 | 0.0 | 0.00 | 0.00 | 0.00 | 55 | 1011.8 |
| 20260508182328 | 59 | 287 | 0.0 | 0.0 | 0.00 | 0.00 | 0.00 | 54 | 1011.7 |
| 20260508181832 | 59 | 316 | 0.0 | 0.0 | 0.00 | 0.00 | 0.00 | 53 | 1011.6 |
| 20260508181317 | 60 | 266 | 0.0 | 0.0 | 0.00 | 0.00 | 0.00 | 53 | 1011.5 |
| 20260508180818 | 60 | 251 | 0.0 | 0.0 | 0.00 | 0.00 | 0.00 | 53 | 1011.6 |
| 20260508180323 | 60 | 79 | 0.0 | 7.0 | 0.00 | 0.00 | 0.00 | 52 | 1011.7 |
| 20260508175846 | 60 | 71 | 0.0 | 7.0 | 0.00 | 0.00 | 0.00 | 55 | 1011.7 |
| 20260508175315 | 59 | 352 | 0.0 | 2.6 | 0.00 | 0.00 | 0.00 | 58 | 1011.8 |
| 20260508174822 | 58 | 309 | 0.9 | 3.5 | 0.00 | 0.00 | 0.00 | 60 | 1011.7 |
| 20260508174320 | 57 | 292 | 0.0 | 3.5 | 0.00 | 0.00 | 0.00 | 60 | 1011.9 |
| 20260508173825 | 57 | 321 | 0.0 | 0.0 | 0.00 | 0.00 | 0.00 | 63 | 1012.1 |
| 20260508173330 | 56 | 84 | 0.0 | 0.0 | 0.00 | 0.00 | 0.00 | 65 | 1012.2 |
| 20260508172834 | 56 | 278 | 0.0 | 3.5 | 0.00 | 0.00 | 0.00 | 65 | 1012.0 |
| 20260508172318 | 56 | 285 | 0.0 | 6.1 | 0.00 | 0.00 | 0.00 | 63 | 1012.1 |